Location: Red Bud (historical)
(37.7759°N, 88.4053°W)
Time: 05:56:25
(UTC+00:00)

Tiangong - Pass Details

Date: 27 June 2021
Orbit: 373 x 385 km, 41.5° (Epoch: 04 August)

Event Time Altitude Azimuth Distance (km) Brightness Sun altitude
Exits shadow 08:16:31 33° 324° (NW) 662 2.4 -20.7°
Maximum altitude 08:17:16 39° 0° (N) 583 2.3 -20.6°
Drops below altitude 10° 08:20:15 10° 72° (ENE) 1,390 4.6 -20.2°
Sets 08:22:24 0° 80° (E) 2,246 5.6 -20.0°
